"Period start","avg(HW err(1)/warn(2) (#))","avg(Visibility (m))","avg(Weather code (#))","avg(Precip intensity (mm/h))","min(HW err(1)/warn(2) (#))","max(HW err(1)/warn(2) (#))","std(HW err(1)/warn(2) (#))","med(HW err(1)/warn(2) (#))","min(Visibility (m))","max(Visibility (m))","std(Visibility (m))","med(Visibility (m))","min(Weather code (#))","max(Weather code (#))","std(Weather code (#))","med(Weather code (#))","min(Precip intensity (mm/h))","max(Precip intensity (mm/h))","std(Precip intensity (mm/h))","med(Precip intensity (mm/h))"
2017-08-11 00:00:00,2,47809,0,0.00,2,2,0,2,42997,50000,2540,49321,0,0,0,0,0.00,0.00,0.00,0.00
2017-08-11 00:10:00,2,45333,0,0.00,2,2,0,2,39299,50000,3916,47003,0,0,0,0,0.00,0.00,0.00,0.00
2017-08-11 00:20:00,2,44576,0,0.00,2,2,0,2,33086,50000,5689,46515,0,0,0,0,0.00,0.00,0.00,0.00
2017-08-11 00:30:00,2,38466,0,0.00,2,2,0,2,21475,50000,8224,39587,0,0,0,0,0.00,0.00,0.00,0.00
2017-08-11 00:40:00,2,39571,0,0.00,2,2,0,2,32754,47247,4331,38849,0,0,0,0,0.00,0.00,0.00,0.00
2017-08-11 00:50:00,2,38352,0,0.00,2,2,0,2,31802,45618,4861,36944,0,0,0,0,0.00,0.00,0.00,0.00
2017-08-11 01:00:00,2,36311,0,0.00,2,2,0,2,33233,43083,3113,35170,0,0,0,0,0.00,0.00,0.00,0.00
2017-08-11 01:10:00,2,42900,0,0.00,2,2,0,2,33951,49839,4445,44453,0,0,0,0,0.00,0.00,0.00,0.00
2017-08-11 01:20:00,2,48675,0,0.00,2,2,0,2,43181,50000,2048,49874,0,0,0,0,0.00,0.00,0.00,0.00
2017-08-11 01:30:00,2,46588,0,0.00,2,2,0,2,40292,50000,2923,46846,0,0,0,0,0.00,0.00,0.00,0.00
2017-08-11 01:40:00,2,43554,0,0.00,2,2,0,2,40225,47918,2580,43165,0,0,0,0,0.00,0.00,0.00,0.00
2017-08-11 01:50:00,2,48300,0,0.00,2,2,0,2,43791,50000,2033,49004,0,0,0,0,0.00,0.00,0.00,0.00
2017-08-11 02:00:00,2,48722,0,0.00,2,2,0,2,45417,50000,1949,50000,0,0,0,0,0.00,0.00,0.00,0.00
2017-08-11 02:10:00,2,46083,0,0.00,2,2,0,2,39920,50000,3608,47438,0,0,0,0,0.00,0.00,0.00,0.00
2017-08-11 02:20:00,2,44756,0,0.00,2,2,0,2,38670,49942,3484,44569,0,0,0,0,0.00,0.00,0.00,0.00
2017-08-11 02:30:00,2,45579,0,0.00,2,2,0,2,40481,50000,3721,45675,0,0,0,0,0.00,0.00,0.00,0.00
2017-08-11 02:40:00,2,43543,0,0.00,2,2,0,2,38046,49968,3937,43571,0,0,0,0,0.00,0.00,0.00,0.00
2017-08-11 02:50:00,2,47944,0,0.00,2,2,0,2,41485,50000,3080,49931,0,0,0,0,0.00,0.00,0.00,0.00
2017-08-11 03:00:00,2,46021,0,0.00,2,2,0,2,40288,50000,3008,45937,0,0,0,0,0.00,0.00,0.00,0.00
2017-08-11 03:10:00,2,39785,0,0.00,2,2,0,2,31990,48996,5508,37849,0,0,0,0,0.00,0.00,0.00,0.00
2017-08-11 03:20:00,2,41145,0,0.00,2,2,0,2,32960,50000,5525,41221,0,0,0,0,0.00,0.00,0.00,0.00
2017-08-11 03:30:00,2,46944,0,0.00,2,2,0,2,42096,50000,2902,46783,0,0,0,0,0.00,0.00,0.00,0.00
2017-08-11 03:40:00,2,46773,0,0.00,2,2,0,2,40348,50000,3234,46870,0,0,0,0,0.00,0.00,0.00,0.00
2017-08-11 03:50:00,2,44973,0,0.00,2,2,0,2,38538,50000,3432,46126,0,0,0,0,0.00,0.00,0.00,0.00
2017-08-11 04:00:00,2,42460,0,0.00,1,2,0,2,33846,50000,5444,43266,0,0,0,0,0.00,0.00,0.00,0.00
2017-08-11 04:10:00,2,45438,0,0.00,2,2,0,2,37268,50000,3863,44428,0,0,0,0,0.00,0.00,0.00,0.00
2017-08-11 04:20:00,2,49994,0,0.00,2,2,0,2,49937,50000,19,50000,0,0,0,0,0.00,0.00,0.00,0.00
2017-08-11 04:30:00,2,49453,0,0.00,2,2,0,2,46219,50000,1144,50000,0,0,0,0,0.00,0.00,0.00,0.00
2017-08-11 04:40:00,2,49434,0,0.00,2,2,0,2,45668,50000,1316,50000,0,0,0,0,0.00,0.00,0.00,0.00
2017-08-11 04:50:00,2,49918,0,0.00,2,2,0,2,49181,50000,246,50000,0,0,0,0,0.00,0.00,0.00,0.00
2017-08-11 05:00:00,2,48972,0,0.00,2,2,0,2,44237,50000,1995,50000,0,0,0,0,0.00,0.00,0.00,0.00
2017-08-11 05:10:00,2,49906,0,0.00,2,2,0,2,49073,50000,278,50000,0,0,0,0,0.00,0.00,0.00,0.00
2017-08-11 05:20:00,2,49730,0,0.00,2,2,0,2,47297,50000,811,50000,0,0,0,0,0.00,0.00,0.00,0.00
2017-08-11 05:30:00,2,48953,0,0.00,2,2,0,2,47206,50000,1197,49678,0,0,0,0,0.00,0.00,0.00,0.00
2017-08-11 05:40:00,2,49396,0,0.00,2,2,0,2,46755,50000,1026,50000,0,0,0,0,0.00,0.00,0.00,0.00
2017-08-11 05:50:00,2,49949,0,0.00,2,2,0,2,49491,50000,153,50000,0,0,0,0,0.00,0.00,0.00,0.00
2017-08-11 06:00:00,2,47664,0,0.00,2,2,0,2,39390,50000,3405,50000,0,0,0,0,0.00,0.00,0.00,0.00
2017-08-11 06:10:00,2,49710,0,0.00,2,2,0,2,48532,50000,464,50000,0,0,0,0,0.00,0.00,0.00,0.00
2017-08-11 06:20:00,2,48677,0,0.00,2,2,0,2,43161,50000,2281,50000,0,0,0,0,0.00,0.00,0.00,0.00
2017-08-11 06:30:00,2,37246,0,0.00,2,2,0,2,24487,49462,8532,36434,0,0,0,0,0.00,0.00,0.00,0.00
2017-08-11 06:40:00,2,23518,0,0.00,2,2,0,2,13068,43126,10033,21061,0,0,0,0,0.00,0.00,0.00,0.00
2017-08-11 06:50:00,2,16141,0,0.00,2,2,0,2,7513,29054,6603,14357,0,0,0,0,0.00,0.00,0.00,0.00
2017-08-11 07:00:00,2,7401,5,0.00,2,2,0,2,5095,9257,1213,7408,0,10,5,5,0.00,0.00,0.00,0.00
2017-08-11 07:10:00,2,6646,10,0.00,2,2,0,2,3840,10074,2162,5746,10,10,0,10,0.00,0.00,0.00,0.00
2017-08-11 07:20:00,2,4886,10,0.00,2,2,0,2,3907,5771,588,5114,10,10,0,10,0.00,0.00,0.00,0.00
2017-08-11 07:30:00,2,8096,10,0.00,2,2,0,2,4685,14923,3119,7046,10,10,0,10,0.00,0.00,0.00,0.00
2017-08-11 07:40:00,2,6831,10,0.00,2,2,0,2,5049,8607,1259,6800,10,10,0,10,0.00,0.00,0.00,0.00
2017-08-11 07:50:00,2,7211,10,0.00,2,2,0,2,5430,8739,1045,7438,10,10,0,10,0.00,0.00,0.00,0.00
2017-08-11 08:00:00,2,9769,10,0.00,2,2,0,2,6582,15011,2397,9154,10,10,0,10,0.00,0.00,0.00,0.00
2017-08-11 08:10:00,2,12251,10,0.00,2,2,0,2,8936,14559,1682,12032,10,10,0,10,0.00,0.00,0.00,0.00
2017-08-11 08:20:00,2,7034,7,0.00,2,2,0,2,5096,9340,1319,7005,0,10,5,10,0.00,0.00,0.00,0.00
2017-08-11 08:30:00,2,8991,10,0.00,2,2,0,2,7337,11159,987,8980,10,10,0,10,0.00,0.00,0.00,0.00
2017-08-11 08:40:00,2,26306,7,0.00,2,2,0,2,12090,41481,11974,23456,0,10,5,10,0.00,0.00,0.00,0.00
2017-08-11 08:50:00,2,44948,0,0.00,2,2,0,2,40519,50000,3223,45192,0,0,0,0,0.00,0.00,0.00,0.00
2017-08-11 09:00:00,2,45131,0,0.00,2,2,0,2,39437,49865,3196,45156,0,0,0,0,0.00,0.00,0.00,0.00
2017-08-11 09:10:00,2,47805,0,0.00,2,2,0,2,44297,50000,2169,48205,0,0,0,0,0.00,0.00,0.00,0.00
2017-08-11 09:20:00,2,49345,0,0.00,2,2,0,2,46926,50000,1004,49954,0,0,0,0,0.00,0.00,0.00,0.00
2017-08-11 09:30:00,2,48574,0,0.00,2,2,0,2,43769,50000,1950,49762,0,0,0,0,0.00,0.00,0.00,0.00
2017-08-11 09:40:00,2,48164,0,0.00,2,2,0,2,43506,50000,2391,49646,0,0,0,0,0.00,0.00,0.00,0.00
2017-08-11 09:50:00,2,48968,0,0.00,2,2,0,2,43626,50000,1915,50000,0,0,0,0,0.00,0.00,0.00,0.00
2017-08-11 10:00:00,2,48987,0,0.00,2,2,0,2,43107,50000,2021,50000,0,0,0,0,0.00,0.00,0.00,0.00
2017-08-11 10:10:00,2,49436,0,0.00,2,2,0,2,46760,50000,1070,50000,0,0,0,0,0.00,0.00,0.00,0.00
2017-08-11 10:20:00,2,49065,0,0.00,2,2,0,2,45549,50000,1405,49748,0,0,0,0,0.00,0.00,0.00,0.00
2017-08-11 10:30:00,2,47725,0,0.00,2,2,0,2,39389,50000,3361,49438,0,0,0,0,0.00,0.00,0.00,0.00
2017-08-11 10:40:00,2,49671,0,0.00,2,2,0,2,47768,50000,709,50000,0,0,0,0,0.00,0.00,0.00,0.00
2017-08-11 10:50:00,2,47949,0,0.00,2,2,0,2,42164,50000,2400,48676,0,0,0,0,0.00,0.00,0.00,0.00
2017-08-11 11:00:00,2,48970,0,0.00,2,2,0,2,44321,50000,1775,49888,0,0,0,0,0.00,0.00,0.00,0.00
2017-08-11 11:10:00,2,45192,0,0.00,2,2,0,2,37385,50000,4560,45645,0,0,0,0,0.00,0.00,0.00,0.00
2017-08-11 11:20:00,2,48013,0,0.00,2,2,0,2,42189,50000,2883,49641,0,0,0,0,0.00,0.00,0.00,0.00
2017-08-11 11:30:00,2,47585,0,0.00,2,2,0,2,42681,50000,2432,48316,0,0,0,0,0.00,0.00,0.00,0.00
2017-08-11 11:40:00,2,49400,0,0.00,2,2,0,2,47216,50000,934,50000,0,0,0,0,0.00,0.00,0.00,0.00
2017-08-11 11:50:00,2,49350,0,0.00,2,2,0,2,46213,50000,1199,50000,0,0,0,0,0.00,0.00,0.00,0.00
2017-08-11 12:00:00,2,49234,0,0.00,0,2,1,2,46807,50000,1129,50000,0,0,0,0,0.00,0.00,0.00,0.00
2017-08-11 12:10:00,1,49480,0,0.00,0,2,1,2,46782,50000,957,49966,0,0,0,0,0.00,0.00,0.00,0.00
2017-08-11 12:20:00,2,47983,0,0.00,0,2,1,2,42072,50000,2752,49482,0,0,0,0,0.00,0.00,0.00,0.00
2017-08-11 12:30:00,1,49486,0,0.00,0,2,1,2,47322,50000,905,50000,0,0,0,0,0.00,0.00,0.00,0.00
2017-08-11 12:40:00,0,48397,0,0.00,0,2,1,0,43519,50000,2077,49504,0,0,0,0,0.00,0.00,0.00,0.00
2017-08-11 12:50:00,0,49588,0,0.00,0,0,0,0,48184,50000,676,50000,0,0,0,0,0.00,0.00,0.00,0.00
2017-08-11 13:00:00,0,50000,0,0.00,0,0,0,0,50000,50000,0,50000,0,0,0,0,0.00,0.00,0.00,0.00
2017-08-11 13:10:00,0,49331,0,0.00,0,0,0,0,44818,50000,1557,50000,0,0,0,0,0.00,0.00,0.00,0.00
2017-08-11 13:20:00,0,47525,0,0.00,0,0,0,0,42735,50000,2480,47859,0,0,0,0,0.00,0.00,0.00,0.00
2017-08-11 13:30:00,0,49374,0,0.00,0,0,0,0,45791,50000,1274,50000,0,0,0,0,0.00,0.00,0.00,0.00
2017-08-11 13:40:00,0,49548,0,0.00,0,0,0,0,45480,50000,1356,50000,0,0,0,0,0.00,0.00,0.00,0.00
2017-08-11 13:50:00,0,49659,0,0.00,0,0,0,0,46873,50000,931,50000,0,0,0,0,0.00,0.00,0.00,0.00
2017-08-11 14:00:00,0,46012,0,0.00,0,0,0,0,39109,50000,4264,47161,0,0,0,0,0.00,0.00,0.00,0.00
2017-08-11 14:10:00,0,48184,0,0.00,0,0,0,0,43701,50000,2435,49389,0,0,0,0,0.00,0.00,0.00,0.00
2017-08-11 14:20:00,0,49921,0,0.00,0,0,0,0,49432,50000,172,50000,0,0,0,0,0.00,0.00,0.00,0.00
2017-08-11 14:30:00,0,49630,0,0.00,0,0,0,0,47189,50000,856,50000,0,0,0,0,0.00,0.00,0.00,0.00
2017-08-11 14:40:00,0,49988,0,0.00,0,0,0,0,49876,50000,37,50000,0,0,0,0,0.00,0.00,0.00,0.00
2017-08-11 14:50:00,0,49201,0,0.00,0,0,0,0,42397,50000,2271,50000,0,0,0,0,0.00,0.00,0.00,0.00
2017-08-11 15:00:00,0,49642,0,0.00,0,0,0,0,47692,50000,698,50000,0,0,0,0,0.00,0.00,0.00,0.00
2017-08-11 15:10:00,0,49710,0,0.00,0,0,0,0,48407,50000,513,50000,0,0,0,0,0.00,0.00,0.00,0.00
2017-08-11 15:20:00,0,47848,0,0.00,0,0,0,0,41495,50000,2958,50000,0,0,0,0,0.00,0.00,0.00,0.00
2017-08-11 15:30:00,0,48299,0,0.00,0,0,0,0,42500,50000,2678,50000,0,0,0,0,0.00,0.00,0.00,0.00
2017-08-11 15:40:00,0,49785,0,0.00,0,0,0,0,47854,50000,644,50000,0,0,0,0,0.00,0.00,0.00,0.00
2017-08-11 15:50:00,0,48105,0,0.00,0,0,0,0,45033,50000,1940,48871,0,0,0,0,0.00,0.00,0.00,0.00
2017-08-11 16:00:00,0,48096,0,0.00,0,0,0,0,39783,50000,3081,49849,0,0,0,0,0.00,0.00,0.00,0.00
2017-08-11 16:10:00,0,49995,0,0.00,0,0,0,0,49952,50000,14,50000,0,0,0,0,0.00,0.00,0.00,0.00
2017-08-11 16:20:00,0,49124,0,0.00,0,0,0,0,45089,50000,1468,50000,0,0,0,0,0.00,0.00,0.00,0.00
2017-08-11 16:30:00,0,49280,0,0.00,0,0,0,0,45343,50000,1406,50000,0,0,0,0,0.00,0.00,0.00,0.00
2017-08-11 16:40:00,0,49937,0,0.00,0,0,0,0,49533,50000,143,50000,0,0,0,0,0.00,0.00,0.00,0.00
2017-08-11 16:50:00,0,49758,0,0.00,0,0,0,0,48698,50000,426,50000,0,0,0,0,0.00,0.00,0.00,0.00
2017-08-11 17:00:00,0,49887,0,0.00,0,0,0,0,48874,50000,338,50000,0,0,0,0,0.00,0.00,0.00,0.00
2017-08-11 17:10:00,0,49597,0,0.00,0,0,0,0,48744,50000,457,49766,0,0,0,0,0.00,0.00,0.00,0.00
2017-08-11 17:20:00,0,49465,0,0.00,0,0,0,0,46356,50000,1090,50000,0,0,0,0,0.00,0.00,0.00,0.00
2017-08-11 17:30:00,0,49535,0,0.00,0,0,0,0,45978,50000,1196,50000,0,0,0,0,0.00,0.00,0.00,0.00
2017-08-11 17:40:00,0,49837,0,0.00,0,0,0,0,49051,50000,295,50000,0,0,0,0,0.00,0.00,0.00,0.00
2017-08-11 17:50:00,0,47676,0,0.00,0,0,0,0,43254,50000,2575,49042,0,0,0,0,0.00,0.00,0.00,0.00
2017-08-11 18:00:00,0,49960,0,0.00,0,0,0,0,49627,50000,111,50000,0,0,0,0,0.00,0.00,0.00,0.00
2017-08-11 18:10:00,0,47838,0,0.00,0,0,0,0,44122,50000,2249,48683,0,0,0,0,0.00,0.00,0.00,0.00
2017-08-11 18:20:00,0,49234,0,0.00,0,0,0,0,45049,50000,1496,50000,0,0,0,0,0.00,0.00,0.00,0.00
2017-08-11 18:30:00,0,49810,0,0.00,0,0,0,0,48248,50000,523,50000,0,0,0,0,0.00,0.00,0.00,0.00
2017-08-11 18:40:00,0,49254,0,0.00,0,0,0,0,46825,50000,1128,49993,0,0,0,0,0.00,0.00,0.00,0.00
2017-08-11 18:50:00,0,47788,0,0.00,0,0,0,0,43574,50000,2153,47886,0,0,0,0,0.00,0.00,0.00,0.00
2017-08-11 19:00:00,0,49078,0,0.00,0,0,0,0,45821,50000,1532,50000,0,0,0,0,0.00,0.00,0.00,0.00
2017-08-11 19:10:00,0,47170,0,0.00,0,0,0,0,44425,50000,1892,46621,0,0,0,0,0.00,0.00,0.00,0.00
2017-08-11 19:20:00,0,47827,0,0.00,0,0,0,0,41953,50000,2504,48714,0,0,0,0,0.00,0.00,0.00,0.00
2017-08-11 19:30:00,0,49232,0,0.00,0,0,0,0,46897,50000,1075,49710,0,0,0,0,0.00,0.00,0.00,0.00
2017-08-11 19:40:00,0,49898,0,0.00,0,0,0,0,49273,50000,226,50000,0,0,0,0,0.00,0.00,0.00,0.00
2017-08-11 19:50:00,0,48114,0,0.00,0,0,0,0,44371,50000,2053,49185,0,0,0,0,0.00,0.00,0.00,0.00
2017-08-11 20:00:00,0,47139,0,0.00,0,0,0,0,41850,50000,2158,47202,0,0,0,0,0.00,0.00,0.00,0.00
2017-08-11 20:10:00,0,46499,0,0.00,0,0,0,0,40819,50000,2890,47037,0,0,0,0,0.00,0.00,0.00,0.00
2017-08-11 20:20:00,2,46200,0,0.00,2,2,0,2,43177,50000,2381,46092,0,0,0,0,0.00,0.00,0.00,0.00
2017-08-11 20:30:00,1,47005,0,0.00,0,2,1,2,41263,50000,3182,48352,0,0,0,0,0.00,0.00,0.00,0.00
2017-08-11 20:40:00,0,48235,0,0.00,0,0,0,0,43764,50000,1938,48532,0,0,0,0,0.00,0.00,0.00,0.00
2017-08-11 20:50:00,0,49338,0,0.00,0,0,0,0,45840,50000,1265,50000,0,0,0,0,0.00,0.00,0.00,0.00
2017-08-11 21:00:00,0,46160,0,0.00,0,2,1,0,37055,50000,3709,46252,0,0,0,0,0.00,0.00,0.00,0.00
2017-08-11 21:10:00,1,48992,0,0.00,0,2,1,2,45595,50000,1281,49278,0,0,0,0,0.00,0.00,0.00,0.00
2017-08-11 21:20:00,0,50000,0,0.00,0,2,1,0,50000,50000,0,50000,0,0,0,0,0.00,0.00,0.00,0.00
2017-08-11 21:30:00,0,49000,0,0.00,0,0,0,0,47150,50000,1155,49716,0,0,0,0,0.00,0.00,0.00,0.00
2017-08-11 21:40:00,0,48992,0,0.00,0,0,0,0,46547,50000,1100,49296,0,0,0,0,0.00,0.00,0.00,0.00
2017-08-11 21:50:00,0,49569,0,0.00,0,0,0,0,46859,50000,938,50000,0,0,0,0,0.00,0.00,0.00,0.00
2017-08-11 22:00:00,0,48603,0,0.00,0,0,0,0,45650,50000,1500,49046,0,0,0,0,0.00,0.00,0.00,0.00
2017-08-11 22:10:00,0,48022,0,0.00,0,0,0,0,42884,50000,2453,49150,0,0,0,0,0.00,0.00,0.00,0.00
2017-08-11 22:20:00,0,47775,0,0.00,0,0,0,0,44398,50000,1944,48048,0,0,0,0,0.00,0.00,0.00,0.00
2017-08-11 22:30:00,0,49161,0,0.00,0,0,0,0,45778,50000,1282,49644,0,0,0,0,0.00,0.00,0.00,0.00
2017-08-11 22:40:00,0,49942,0,0.00,0,0,0,0,49417,50000,175,50000,0,0,0,0,0.00,0.00,0.00,0.00
2017-08-11 22:50:00,0,47256,0,0.00,0,0,0,0,40562,50000,3420,48970,0,0,0,0,0.00,0.00,0.00,0.00
2017-08-11 23:00:00,0,48971,0,0.00,0,0,0,0,42468,50000,2202,49934,0,0,0,0,0.00,0.00,0.00,0.00
2017-08-11 23:10:00,0,50000,0,0.00,0,0,0,0,50000,50000,0,50000,0,0,0,0,0.00,0.00,0.00,0.00
2017-08-11 23:20:00,0,48769,0,0.00,0,0,0,0,46898,50000,1112,48570,0,0,0,0,0.00,0.00,0.00,0.00
2017-08-11 23:30:00,0,45606,0,0.00,0,0,0,0,39551,49644,3306,46594,0,0,0,0,0.00,0.00,0.00,0.00
2017-08-11 23:40:00,0,49027,0,0.00,0,0,0,0,46863,50000,1191,49506,0,0,0,0,0.00,0.00,0.00,0.00
2017-08-11 23:50:00,0,48362,0,0.00,0,0,0,0,42474,50000,2207,49122,0,0,0,0,0.00,0.00,0.00,0.00
